[[{"header":{"parameterUnit":"m.s-1","parameterCategory":1,"la1":30.2991,"la2":30.254,"lo1":-89.0895,"lo2":-89.0444,"dy":0.0017,"dx":0.0017,"nx":28,"ny":28,"refTime":"2023-08-16T21:00:00:Z","depth":0,"parameterNumber":2,"parameterNumberName":"U-component_of_WINDS"},"data":[0,0,0,0,0,0,0,0,0,0,0,0,0,0,0,0,0,0,0,0,0,0,0,0,0,0,0,0,0,0,0,0,0,0,0,0,0,0,0,0,0,0,0,0,0,0,0,0,0,0,0,0,0,0,0,0,0,0,1.6487,1.6488,0,1.6562,1.6563,1.6563,1.654,1.6538,1.6537,1.6535,1.6613,1.6616,1.662,0,0,0,0,0,0,0,0,0,0,0,0,0,1.6323,1.6326,1.6487,1.6488,1.6489,1.6562,1.6563,1.6564,1.654,1.6538,1.6536,1.6534,1.6612,1.6616,1.662,0,0,0,0,0,0,0,0,0,0,0,0,0,1.6396,1.6327,1.6487,1.6486,1.6487,1.6561,1.6563,1.6564,1.6541,1.6538,1.6536,1.6534,1.661,1.6615,1.6621,1.6701,0,0,1.6637,1.6639,0,0,0,0,0,0,0,0,1.6392,1.6402,1.6485,1.6486,1.6487,1.6539,1.6533,1.661,1.6541,1.652,1.6535,1.6532,1.659,1.6597,1.6616,1.6705,1.6708,1.6637,1.6641,1.6643,1.6644,0,0,0,0,0,0,0,1.6387,1.6399,1.6517,1.6486,1.6488,1.6481,1.6489,1.6548,1.6568,1.6522,1.652,1.6529,1.659,1.6611,1.6618,1.6709,1.6637,1.6642,1.6645,1.6647,1.6866,1.6868,0,0,0,0,0,0,1.6381,1.6394,1.6514,1.6519,1.6432,1.6486,1.6495,1.6525,1.6567,1.6571,1.6531,1.6528,1.6603,1.6612,1.6621,1.6717,1.6643,1.6648,1.6651,1.6863,1.6866,1.6869,0,0,0,0,0,0,1.6378,1.6392,1.6511,1.6456,1.6471,1.6492,1.6525,1.6527,1.6548,1.6574,1.6578,1.6549,1.6602,1.6613,1.6681,1.6719,1.665,1.6655,1.686,1.6864,1.6868,1.691,0,0,0,0,0,0,1.6373,1.6391,1.6422,1.6457,1.6474,1.6571,1.6528,1.6531,1.6558,1.6554,1.6592,1.6596,1.6601,1.6673,1.6686,1.6725,1.6659,1.6857,1.6862,1.6866,1.6905,1.6915,1.6923,0,0,0,0,0,1.6367,1.6432,1.6424,1.6439,1.6514,1.6573,1.6583,1.6587,1.6561,1.6592,1.6608,1.6595,1.6713,1.668,1.6695,1.6736,1.6854,1.686,1.6866,1.6901,1.6913,1.6923,0,0,0,0,0,0,1.6402,1.6437,1.6428,1.6506,1.6536,1.6569,1.6609,1.6599,1.6638,1.6633,1.6637,1.6646,1.6715,1.6732,1.6695,1.6815,1.678,1.6789,1.6801,1.6813,1.6821,1.6816,1.6664,0,0,0,0,0,1.6418,1.6464,1.6492,1.6557,1.6573,1.6588,1.6614,1.6614,1.6646,1.6659,1.6681,1.6712,1.6756,1.6785,1.6827,1.6907,1.6915,1.6943,1.6951,1.6959,1.6966,1.7008,1.7021,1.6888,1.6888,1.6888,0,0,1.6453,1.6478,1.6507,1.6565,1.6589,1.6635,1.6599,1.6651,1.6685,1.6667,1.6732,1.6749,1.6784,1.6858,1.6891,1.6874,1.7004,1.6966,1.6972,1.6976,1.7016,1.7028,1.7039,1.6892,1.6891,1.6891,0,0,1.6541,1.6564,1.6621,1.6645,1.6681,1.669,1.6703,1.6737,1.6747,1.6811,1.6799,1.6839,1.6916,1.6941,1.6964,1.7058,1.7046,1.7071,1.7118,1.7159,1.7169,1.7178,1.7211,1.7223,1.7079,1.7079,1.7079,0,1.658,1.6649,1.6651,1.6703,1.6728,1.6713,1.677,1.6794,1.6842,1.6859,1.6839,1.6933,1.6956,1.7035,1.7057,1.7076,1.7091,1.7067,1.7167,1.7177,1.7185,1.7217,1.7229,1.7082,1.7081,1.7081,1.7081,0,1.6695,1.6743,1.6785,1.683,1.686,1.6914,1.6924,1.6954,1.6951,1.6962,1.7027,1.7054,1.71,1.7118,1.7117,1.7196,1.7185,1.7166,1.7131,1.7201,1.723,1.7242,1.7086,1.7085,1.7084,1.7083,0,0,1.6808,1.6852,1.6868,1.6887,1.6924,1.6962,1.7014,1.7058,1.7084,1.7117,1.7161,1.7224,1.7206,1.7232,1.7233,1.7268,1.734,1.7245,1.7246,1.7261,1.7428,1.7442,1.7456,1.7332,1.7334,1.7336,1.7425,0,1.6898,1.6991,1.6993,1.7077,1.7121,1.7106,1.7152,1.7179,1.719,1.7229,1.7241,1.7285,1.7259,1.7274,1.7309,1.7324,1.7373,1.7317,1.7373,1.7375,1.7364,1.7471,1.7487,1.7569,1.7436,1.7438,1.744,0,1.7017,1.7052,1.714,1.7169,1.7188,1.7229,1.7268,1.7306,1.7336,1.7341,1.7369,1.7363,1.7416,1.7378,1.7451,1.7412,1.7435,1.7445,1.7448,1.7454,1.7412,1.748,1.7596,1.7608,1.7458,1.7457,1.7455,0,1.7089,1.7159,1.7221,1.7238,1.7274,1.7302,1.7319,1.7346,1.7372,1.7407,1.7423,1.7464,1.7486,1.7518,1.7523,1.7495,1.7595,1.7558,1.7601,1.7601,1.7624,1.7622,1.7745,1.7638,1.7638,1.7637,1.7637,0,1.719,1.7245,1.7253,1.7292,1.7352,1.7353,1.7412,1.7426,1.745,1.749,1.748,1.7517,1.7522,1.7561,1.7565,1.7624,1.7634,1.764,1.764,1.7641,1.764,1.7656,1.7651,1.7641,1.764,1.7639,1.7639,0,1.7282,1.729,1.7356,1.7384,1.7392,1.7435,1.7458,1.7494,1.7503,1.7553,1.7565,1.7579,1.7624,1.7632,1.7685,1.7688,1.7758,1.7753,1.7748,1.7747,1.779,1.7786,1.7927,1.7945,1.7826,1.7827,1.7828,0,1.7346,1.7388,1.7419,1.7444,1.7461,1.7503,1.7529,1.7531,1.7558,1.7594,1.7625,1.7668,1.7703,1.7775,1.7791,1.7831,1.7826,1.7873,1.7832,1.7831,1.7827,1.7824,1.7828,1.7881,1.7882,1.7883,1.7884,0,1.7458,1.746,1.7497,1.7536,1.7566,1.7597,1.7626,1.7647,1.7652,1.7683,1.7728,1.7755,1.7808,1.7851,1.7891,1.7907,1.7897,1.7897,1.7909,1.791,1.7905,1.7908,1.7769,1.7894,1.7893,1.7892,1.7892,1.7891,1.7538,1.7574,1.7601,1.7642,1.7663,1.769,1.7724,1.7737,1.7774,1.7817,1.7816,1.7865,1.7892,1.7944,1.7962,1.8,1.7986,1.8003,1.8008,1.8012,1.8016,1.7898,1.8008,1.8007,1.8007,1.8007,1.8007,0,1.765,1.7665,1.7704,1.7743,1.7776,1.7761,1.7792,1.782,1.7863,1.7889,1.7923,1.7974,1.8015,1.8032,1.8072,1.8099,1.8095,1.811,1.8108,1.8112,1.8027,1.8013,1.8112,1.8112,1.8112,1.8112,1.8112,1.8112,1.7711,1.777,1.7774,1.7843,1.7858,1.7906,1.7925,1.7949,1.7969,1.8026,1.806,1.807,1.8092,1.8133,1.817,1.8174,1.8189,1.8206,1.8208,1.8129,1.8118,1.8108,1.8094,1.8209,1.8209,1.8289,1.829,1.8291]},{"header":{"parameterUnit":"m.s-1","parameterCategory":1,"la1":30.2991,"la2":30.254,"lo1":-89.0895,"lo2":-89.0444,"dy":0.0017,"dx":0.0017,"nx":28,"ny":28,"refTime":"2023-08-16T21:00:00:Z","depth":0,"parameterNumber":3,"parameterNumberName":"V-component_of_WINDS"},"data":[0,0,0,0,0,0,0,0,0,0,0,0,0,0,0,0,0,0,0,0,0,0,0,0,0,0,0,0,0,0,0,0,0,0,0,0,0,0,0,0,0,0,0,0,0,0,0,0,0,0,0,0,0,0,0,0,0,0,5.792,5.792,0,5.7971,5.7972,5.7972,5.7907,5.7905,5.7903,5.79,5.7948,5.7951,5.7955,0,0,0,0,0,0,0,0,0,0,0,0,0,5.7759,5.7762,5.792,5.792,5.7921,5.7971,5.7972,5.7972,5.7908,5.7905,5.7902,5.7899,5.7947,5.7951,5.7955,0,0,0,0,0,0,0,0,0,0,0,0,0,5.7821,5.7763,5.792,5.7895,5.7893,5.7971,5.7972,5.7973,5.7908,5.7905,5.7901,5.7898,5.7945,5.795,5.7956,5.8058,0,0,5.7971,5.7974,0,0,0,0,0,0,0,0,5.7818,5.7827,5.7898,5.7897,5.7895,5.7929,5.7932,5.8001,5.7909,5.7902,5.79,5.7896,5.7944,5.7949,5.7966,5.8061,5.8063,5.7972,5.7975,5.7977,5.7979,0,0,0,0,0,0,0,5.7814,5.7825,5.794,5.7899,5.7897,5.7879,5.7884,5.7945,5.7942,5.7903,5.7898,5.7905,5.7943,5.7962,5.7967,5.8063,5.7972,5.7976,5.7979,5.7982,5.8241,5.8245,0,0,0,0,0,0,5.7813,5.7821,5.7938,5.7941,5.7847,5.7885,5.789,5.7922,5.7942,5.7941,5.7908,5.7902,5.7955,5.7961,5.7969,5.8088,5.7977,5.7982,5.7985,5.8237,5.8242,5.8246,0,0,0,0,0,0,5.781,5.7824,5.7936,5.788,5.7893,5.7891,5.7927,5.7925,5.7944,5.7946,5.7944,5.7929,5.7952,5.7961,5.8036,5.8089,5.7984,5.7989,5.8233,5.8239,5.8244,5.8329,0,0,0,0,0,0,5.7805,5.7823,5.7864,5.7882,5.7896,5.8005,5.7931,5.7928,5.7953,5.7946,5.7965,5.7964,5.795,5.8029,5.8041,5.8094,5.7993,5.8228,5.8236,5.8242,5.8321,5.8337,5.835,0,0,0,0,0,5.78,5.7885,5.7866,5.7881,5.7948,5.8008,5.8016,5.8,5.7958,5.7997,5.7999,5.7964,5.8082,5.8037,5.8051,5.8106,5.8225,5.8233,5.8242,5.8315,5.8334,5.835,0,0,0,0,0,0,5.7872,5.7887,5.7866,5.796,5.7984,5.7997,5.8047,5.8021,5.8055,5.8046,5.8022,5.8027,5.8107,5.8114,5.8064,5.8205,5.8146,5.8157,5.8197,5.8215,5.8229,5.8224,5.7997,0,0,0,0,0,5.7899,5.7949,5.7959,5.8041,5.8054,5.8049,5.8074,5.806,5.8082,5.8091,5.8098,5.8119,5.8161,5.8188,5.8227,5.8323,5.8324,5.8367,5.8382,5.8393,5.8403,5.8451,5.847,5.8274,5.8274,5.8274,0,0,5.7955,5.7969,5.8002,5.8056,5.8072,5.8122,5.8057,5.8113,5.8149,5.8099,5.817,5.8176,5.8198,5.8283,5.8321,5.8291,5.8457,5.8404,5.8414,5.8417,5.8462,5.848,5.8497,5.828,5.8279,5.8278,0,0,5.8082,5.8099,5.8168,5.8186,5.8212,5.8208,5.8225,5.8242,5.8244,5.8316,5.8278,5.832,5.8393,5.841,5.8428,5.856,5.8528,5.8574,5.8647,5.8695,5.871,5.8724,5.8768,5.8785,5.8584,5.8584,5.8584,0,5.8147,5.8223,5.8206,5.8265,5.8288,5.8247,5.8315,5.8332,5.8369,5.8385,5.8352,5.8442,5.8454,5.8541,5.8573,5.8591,5.8606,5.857,5.871,5.8723,5.8735,5.8778,5.8795,5.8589,5.8588,5.8588,5.8587,0,5.8301,5.8354,5.8406,5.8444,5.8473,5.8536,5.8527,5.8558,5.8541,5.854,5.8611,5.8625,5.8664,5.8684,5.8668,5.8769,5.8749,5.8714,5.8654,5.8759,5.8798,5.8815,5.8596,5.8594,5.8593,5.8592,0,0,5.8473,5.8501,5.852,5.8536,5.8562,5.8601,5.8661,5.8701,5.8727,5.8754,5.8802,5.8865,5.8831,5.8852,5.8837,5.8879,5.898,5.8838,5.8838,5.8861,5.9089,5.9114,5.9133,5.896,5.8963,5.8965,5.9086,0,5.8598,5.8704,5.869,5.8791,5.8838,5.8799,5.8851,5.8871,5.8871,5.8909,5.8909,5.8953,5.8907,5.8919,5.8959,5.8959,5.9025,5.8951,5.9001,5.9003,5.8994,5.9154,5.918,5.9294,5.9101,5.9104,5.9106,0,5.8758,5.8791,5.8897,5.8914,5.8933,5.898,5.9014,5.9053,5.9074,5.9071,5.9094,5.9071,5.9128,5.9069,5.9147,5.9097,5.9117,5.912,5.9124,5.9126,5.9059,5.9157,5.933,5.9346,5.913,5.9128,5.9127,0,5.887,5.8941,5.9013,5.9028,5.905,5.9084,5.9094,5.9112,5.9136,5.9166,5.9181,5.9217,5.9236,5.9264,5.925,5.9209,5.9329,5.9269,5.9326,5.9326,5.9351,5.9349,5.9526,5.9368,5.9368,5.9368,5.9367,0,5.9009,5.9075,5.9063,5.9107,5.9178,5.9161,5.9232,5.9237,5.9253,5.9295,5.9264,5.9304,5.9285,5.9323,5.9313,5.9377,5.9387,5.9384,5.938,5.9385,5.9385,5.9396,5.9387,5.9372,5.9371,5.937,5.937,0,5.9145,5.9141,5.9216,5.9231,5.9236,5.9288,5.9299,5.9339,5.9337,5.9391,5.9402,5.9399,5.9442,5.9432,5.9479,5.9472,5.9552,5.9539,5.9545,5.9541,5.9597,5.9591,5.9785,5.9808,5.9638,5.964,5.9641,0,5.9233,5.9283,5.9303,5.933,5.9343,5.9387,5.9412,5.9397,5.9423,5.9451,5.9486,5.9527,5.9559,5.9629,5.9629,5.9664,5.9651,5.9717,5.9656,5.9659,5.9648,5.9645,5.9648,5.9728,5.973,5.9731,5.9733,0,5.9389,5.9384,5.9422,5.946,5.949,5.9519,5.9544,5.9567,5.9553,5.9585,5.9629,5.9654,5.9702,5.9742,5.9774,5.9782,5.9754,5.9752,5.9766,5.9771,5.9771,5.9769,5.9575,5.9747,5.9746,5.9745,5.9744,5.9743,5.9502,5.9543,5.9563,5.9606,5.9624,5.9647,5.9685,5.9688,5.9726,5.9764,5.9753,5.9803,5.9821,5.9861,5.9874,5.9911,5.9886,5.9907,5.9912,5.9917,5.9923,5.9768,5.9917,5.9917,5.9916,5.9916,5.9916,0,5.9653,5.9664,5.9704,5.974,5.9774,5.9747,5.9773,5.9802,5.9847,5.9867,5.9898,5.9948,5.9987,5.999,6.0026,6.0055,6.0043,6.0064,6.0061,6.0062,5.9945,5.9928,6.0073,6.0073,6.0073,6.0073,6.0073,6.0073,5.9736,5.9803,5.9801,5.9876,5.9886,5.9936,5.9953,5.9973,5.9989,6.0047,6.0079,6.0082,6.0094,6.013,6.0164,6.0163,6.0177,6.0203,6.0197,6.0087,6.0071,6.0056,6.0039,6.0206,6.0207,6.0311,6.0312,6.0313]}]]